Time,TemperatureF,DewpointF,PressureIn,WindDirection,WindDirectionDegrees,WindSpeedMPH,WindSpeedGustMPH,Humidity,HourlyPrecipIn,Conditions,Clouds,dailyrainin,SoftwareType,DateUTC
2013-02-25 00:27:00,54.9,44.7,30.09,North,0,0.0,0.0,68,0.00,,SKC,0.00,WUHU21623XXSP,2013-02-24 22:27:00,
2013-02-25 01:27:00,54.3,46.3,30.08,SSE,158,0.0,0.0,74,0.00,,SKC,0.00,WUHU21623XXSP,2013-02-24 23:27:00,
2013-02-25 02:27:00,55.0,48.7,30.07,NE,45,4.4,4.4,79,0.00,,SKC,0.00,WUHU21623XXSP,2013-02-25 00:27:00,
2013-02-25 03:27:00,56.1,51.3,30.06,North,0,2.8,2.8,84,0.00,,SKC,0.00,WUHU21623XXSP,2013-02-25 01:27:00,
2013-02-25 04:27:00,54.7,49.7,30.06,NNW,338,0.0,0.0,83,0.00,,SKC,0.00,WUHU21623XXSP,2013-02-25 02:27:00,
2013-02-25 05:27:00,54.7,50.3,30.06,North,0,0.0,0.0,85,0.00,,SKC,0.00,WUHU21623XXSP,2013-02-25 03:27:00,
2013-02-25 06:27:00,54.9,50.8,30.06,NNE,23,1.0,1.0,86,0.00,,SKC,0.00,WUHU21623XXSP,2013-02-25 04:27:00,
2013-02-25 07:27:00,53.4,49.3,30.07,NNE,23,0.0,0.0,86,0.00,,SKC,0.00,WUHU21623XXSP,2013-02-25 05:27:00,
2013-02-25 07:50:00,54.1,50.3,30.07,NNE,22,6.6,6.6,87,0.00,,SKC,0.00,WUHU21623XXSP,2013-02-25 05:50:00,
2013-02-25 07:55:00,54.3,50.2,30.07,North,0,0.0,6.6,86,0.00,,SKC,0.00,WUHU21623XXSP,2013-02-25 05:55:00,
2013-02-25 08:00:00,54.5,50.1,30.07,North,0,0.0,5.9,85,0.00,,SKC,0.00,WUHU21623XXSP,2013-02-25 06:00:00,
2013-02-25 08:05:00,54.7,50.0,30.07,North,0,0.0,3.7,84,0.00,,SKC,0.00,WUHU21623XXSP,2013-02-25 06:05:00,
2013-02-25 08:10:00,54.9,49.9,30.07,North,0,4.0,4.0,83,0.00,,SKC,0.00,WUHU21623XXSP,2013-02-25 06:10:00,
2013-02-25 08:15:00,55.2,49.8,30.07,NNE,22,0.0,4.9,82,0.00,,SKC,0.00,WUHU21623XXSP,2013-02-25 06:15:00,
2013-02-25 08:20:00,55.6,49.9,30.07,NE,45,0.0,4.9,81,0.00,,SKC,0.00,WUHU21623XXSP,2013-02-25 06:20:00,
2013-02-25 08:25:00,55.8,49.8,30.07,NNW,337,0.0,4.4,80,0.00,,SKC,0.00,WUHU21623XXSP,2013-02-25 06:25:00,
2013-02-25 08:30:00,56.3,49.3,30.07,NW,315,0.0,3.4,77,0.00,,SKC,0.00,WUHU21623XXSP,2013-02-25 06:30:00,
2013-02-25 08:35:00,56.7,49.6,30.07,North,0,0.0,0.0,77,0.00,,SKC,0.00,WUHU21623XXSP,2013-02-25 06:35:00,
2013-02-25 08:40:00,57.4,49.6,30.07,NE,45,0.0,2.2,75,0.00,,SKC,0.00,WUHU21623XXSP,2013-02-25 06:40:00,
2013-02-25 08:45:00,57.6,49.5,30.07,North,0,0.0,2.2,74,0.00,,SKC,0.00,WUHU21623XXSP,2013-02-25 06:45:00,
2013-02-25 08:50:00,58.1,49.6,30.07,NNE,22,0.0,4.0,73,0.00,,SKC,0.00,WUHU21623XXSP,2013-02-25 06:50:00,
2013-02-25 08:55:00,58.6,49.4,30.07,North,0,0.0,4.2,71,0.00,,SKC,0.00,WUHU21623XXSP,2013-02-25 06:55:00,
2013-02-25 09:00:00,59.2,49.6,30.07,North,0,2.2,5.2,70,0.00,,SKC,0.00,WUHU21623XXSP,2013-02-25 07:00:00,
2013-02-25 09:05:00,59.9,49.5,30.07,North,0,2.4,5.2,68,0.00,,SKC,0.00,WUHU21623XXSP,2013-02-25 07:05:00,
2013-02-25 09:10:00,60.3,49.0,30.07,NNE,22,2.0,4.7,66,0.00,,SKC,0.00,WUHU21623XXSP,2013-02-25 07:10:00,
2013-02-25 09:15:00,61.0,48.9,30.07,NNE,22,0.0,4.7,64,0.00,,SKC,0.00,WUHU21623XXSP,2013-02-25 07:15:00,
2013-02-25 09:20:00,61.5,48.9,30.08,NNW,337,0.8,4.0,63,0.00,,SKC,0.00,WUHU21623XXSP,2013-02-25 07:20:00,
2013-02-25 09:25:00,61.9,48.0,30.08,NE,45,0.0,4.2,60,0.00,,SKC,0.00,WUHU21623XXSP,2013-02-25 07:25:00,
2013-02-25 09:30:00,62.6,48.2,30.07,North,0,0.0,4.2,59,0.00,,SKC,0.00,WUHU21623XXSP,2013-02-25 07:30:00,
2013-02-25 09:35:00,63.1,47.3,30.07,NNW,337,0.0,1.8,56,0.00,,SKC,0.00,WUHU21623XXSP,2013-02-25 07:35:00,
2013-02-25 09:40:00,63.3,45.9,30.07,WNW,292,0.0,0.0,53,0.00,,SKC,0.00,WUHU21623XXSP,2013-02-25 07:40:00,
2013-02-25 09:45:00,63.5,46.1,30.08,WNW,292,0.0,0.0,53,0.00,,SKC,0.00,WUHU21623XXSP,2013-02-25 07:45:00,
2013-02-25 09:50:00,63.5,45.6,30.08,NNW,337,0.0,0.0,52,0.00,,SKC,0.00,WUHU21623XXSP,2013-02-25 07:50:00,
2013-02-25 09:55:00,64.2,46.3,30.08,SE,135,4.0,5.4,52,0.00,,SKC,0.00,WUHU21623XXSP,2013-02-25 07:55:00,
2013-02-25 10:00:00,64.8,47.3,30.07,NW,315,0.0,5.4,53,0.00,,SKC,0.00,WUHU21623XXSP,2013-02-25 08:00:00,
2013-02-25 10:05:00,64.9,46.9,30.07,South,180,0.0,7.2,52,0.00,,SKC,0.00,WUHU21623XXSP,2013-02-25 08:05:00,
2013-02-25 10:10:00,65.1,46.6,30.07,South,180,4.7,7.2,51,0.00,,SKC,0.00,WUHU21623XXSP,2013-02-25 08:10:00,
2013-02-25 10:15:00,65.3,46.8,30.07,WSW,247,4.2,6.9,51,0.00,,SKC,0.00,WUHU21623XXSP,2013-02-25 08:15:00,
2013-02-25 10:20:00,65.7,46.0,30.07,South,180,12.3,12.3,49,0.00,,SKC,0.00,WUHU21623XXSP,2013-02-25 08:20:00,
2013-02-25 10:25:00,66.4,45.5,30.07,South,180,1.8,12.3,47,0.00,,SKC,0.00,WUHU21623XXSP,2013-02-25 08:25:00,
2013-02-25 10:30:00,66.7,45.8,30.07,SE,135,4.0,8.1,47,0.00,,SKC,0.00,WUHU21623XXSP,2013-02-25 08:30:00,
2013-02-25 10:35:00,67.1,44.4,30.07,ESE,112,9.1,13.8,44,0.00,,SKC,0.00,WUHU21623XXSP,2013-02-25 08:35:00,
2013-02-25 10:40:00,67.5,44.8,30.07,SSE,157,5.4,13.8,44,0.00,,SKC,0.00,WUHU21623XXSP,2013-02-25 08:40:00,
2013-02-25 10:45:00,67.6,44.8,30.07,South,180,9.8,10.3,44,0.00,,SKC,0.00,WUHU21623XXSP,2013-02-25 08:45:00,
2013-02-25 10:50:00,67.6,44.2,30.07,SSE,157,1.8,14.7,43,0.00,,SKC,0.00,WUHU21623XXSP,2013-02-25 08:50:00,
2013-02-25 10:55:00,67.6,44.8,30.07,ESE,112,6.6,14.7,44,0.00,,SKC,0.00,WUHU21623XXSP,2013-02-25 08:55:00,
2013-02-25 11:00:00,67.6,44.2,30.07,SE,135,4.9,13.1,43,0.00,,SKC,0.00,WUHU21623XXSP,2013-02-25 09:00:00,
2013-02-25 11:05:00,68.2,44.8,30.07,ESE,112,4.4,12.1,43,0.00,,SKC,0.00,WUHU21623XXSP,2013-02-25 09:05:00,
2013-02-25 11:10:00,68.2,44.1,30.06,SE,135,7.2,14.3,42,0.00,,SKC,0.00,WUHU21623XXSP,2013-02-25 09:10:00,
2013-02-25 11:15:00,67.6,42.9,30.06,South,180,1.8,17.9,41,0.00,,SKC,0.00,WUHU21623XXSP,2013-02-25 09:15:00,
2013-02-25 11:20:00,67.6,43.6,30.06,SW,225,5.6,17.9,42,0.00,,SKC,0.00,WUHU21623XXSP,2013-02-25 09:20:00,
2013-02-25 11:25:00,68.2,44.1,30.06,ESE,112,0.0,16.9,42,0.00,,SKC,0.00,WUHU21623XXSP,2013-02-25 09:25:00,
2013-02-25 11:30:00,68.4,43.7,30.06,SSE,157,1.2,16.7,41,0.00,,SKC,0.00,WUHU21623XXSP,2013-02-25 09:30:00,
2013-02-25 11:35:00,68.4,44.3,30.06,South,180,8.1,18.5,42,0.00,,SKC,0.00,WUHU21623XXSP,2013-02-25 09:35:00,
2013-02-25 11:40:00,68.7,44.6,30.06,SE,135,1.4,18.5,42,0.00,,SKC,0.00,WUHU21623XXSP,2013-02-25 09:40:00,
2013-02-25 11:45:00,68.9,44.1,30.05,South,180,4.4,10.8,41,0.00,,SKC,0.00,WUHU21623XXSP,2013-02-25 09:45:00,
2013-02-25 11:50:00,68.9,42.8,30.05,SSE,157,9.8,15.9,39,0.00,,SKC,0.00,WUHU21623XXSP,2013-02-25 09:50:00,
2013-02-25 11:55:00,68.9,42.1,30.05,SE,135,10.1,16.7,38,0.00,,SKC,0.00,WUHU21623XXSP,2013-02-25 09:55:00,
2013-02-25 12:00:00,68.9,42.1,30.05,SSE,157,7.9,16.7,38,0.00,,SKC,0.00,WUHU21623XXSP,2013-02-25 10:00:00,
2013-02-25 12:05:00,68.9,42.1,30.05,SE,135,8.1,17.5,38,0.00,,SKC,0.00,WUHU21623XXSP,2013-02-25 10:05:00,
2013-02-25 12:10:00,69.3,43.1,30.04,SSE,157,6.4,17.5,39,0.00,,SKC,0.00,WUHU21623XXSP,2013-02-25 10:10:00,
2013-02-25 12:15:00,69.1,44.3,30.04,SE,135,6.9,15.9,41,0.00,,SKC,0.00,WUHU21623XXSP,2013-02-25 10:15:00,
2013-02-25 12:20:00,69.1,43.6,30.04,East,90,8.1,15.9,40,0.00,,SKC,0.00,WUHU21623XXSP,2013-02-25 10:20:00,
2013-02-25 12:25:00,69.1,43.0,30.04,SSE,157,9.1,16.5,39,0.00,,SKC,0.00,WUHU21623XXSP,2013-02-25 10:25:00,
2013-02-25 12:30:00,69.1,43.0,30.04,ESE,112,9.4,17.3,39,0.00,,SKC,0.00,WUHU21623XXSP,2013-02-25 10:30:00,
2013-02-25 12:35:00,69.3,43.1,30.04,SE,135,8.4,17.3,39,0.00,,SKC,0.00,WUHU21623XXSP,2013-02-25 10:35:00,
2013-02-25 12:40:00,68.9,43.5,30.04,SSE,157,8.1,15.9,40,0.00,,SKC,0.00,WUHU21623XXSP,2013-02-25 10:40:00,
2013-02-25 12:45:00,69.3,44.5,30.04,SE,135,5.6,15.9,41,0.00,,SKC,0.00,WUHU21623XXSP,2013-02-25 10:45:00,
2013-02-25 12:50:00,69.1,42.3,30.03,ESE,112,8.6,18.9,38,0.00,,SKC,0.00,WUHU21623XXSP,2013-02-25 10:50:00,
2013-02-25 12:55:00,69.1,42.3,30.03,SSE,157,11.1,18.9,38,0.00,,SKC,0.00,WUHU21623XXSP,2013-02-25 10:55:00,
2013-02-25 13:00:00,68.7,43.9,30.03,SE,135,8.6,16.9,41,0.00,,SKC,0.00,WUHU21623XXSP,2013-02-25 11:00:00,
2013-02-25 13:05:00,68.9,43.5,30.03,SSE,157,4.2,15.9,40,0.00,,SKC,0.00,WUHU21623XXSP,2013-02-25 11:05:00,
2013-02-25 13:10:00,68.9,42.8,30.03,SSE,157,5.9,15.7,39,0.00,,SKC,0.00,WUHU21623XXSP,2013-02-25 11:10:00,
2013-02-25 13:15:00,69.3,43.8,30.03,South,180,4.0,15.7,40,0.00,,SKC,0.00,WUHU21623XXSP,2013-02-25 11:15:00,
2013-02-25 13:20:00,68.9,43.5,30.03,South,180,4.4,17.5,40,0.00,,SKC,0.00,WUHU21623XXSP,2013-02-25 11:20:00,
2013-02-25 13:25:00,68.7,43.3,30.02,East,90,0.0,17.5,40,0.00,,SKC,0.00,WUHU21623XXSP,2013-02-25 11:25:00,
2013-02-25 13:30:00,68.7,43.3,30.02,SE,135,5.2,16.5,40,0.00,,SKC,0.00,WUHU21623XXSP,2013-02-25 11:30:00,
2013-02-25 13:35:00,69.1,44.3,30.02,South,180,6.4,14.1,41,0.00,,SKC,0.00,WUHU21623XXSP,2013-02-25 11:35:00,
2013-02-25 13:40:00,68.7,44.6,30.01,SE,135,0.8,15.7,42,0.00,,SKC,0.00,WUHU21623XXSP,2013-02-25 11:40:00,
2013-02-25 13:45:00,68.5,43.8,30.01,SSW,202,13.5,16.5,41,0.00,,SKC,0.00,WUHU21623XXSP,2013-02-25 11:45:00,
2013-02-25 13:50:00,68.7,44.6,30.01,SE,135,14.7,16.5,42,0.00,,SKC,0.00,WUHU21623XXSP,2013-02-25 11:50:00,
2013-02-25 13:55:00,68.5,43.1,30.01,South,180,6.4,16.9,40,0.00,,SKC,0.00,WUHU21623XXSP,2013-02-25 11:55:00,
2013-02-25 14:00:00,68.4,43.7,30.01,South,180,5.6,17.9,41,0.00,,SKC,0.00,WUHU21623XXSP,2013-02-25 12:00:00,
2013-02-25 14:05:00,68.4,43.7,30.00,ESE,112,4.9,17.9,41,0.00,,SKC,0.00,WUHU21623XXSP,2013-02-25 12:05:00,
2013-02-25 14:10:00,68.7,44.6,30.00,SW,225,4.2,16.3,42,0.00,,SKC,0.00,WUHU21623XXSP,2013-02-25 12:10:00,
2013-02-25 14:15:00,68.5,43.8,30.00,SE,135,4.9,17.7,41,0.00,,SKC,0.00,WUHU21623XXSP,2013-02-25 12:15:00,
2013-02-25 14:20:00,68.5,43.8,30.00,ESE,112,7.6,17.7,41,0.00,,SKC,0.00,WUHU21623XXSP,2013-02-25 12:20:00,
2013-02-25 14:25:00,68.5,43.8,30.00,SE,135,7.6,17.5,41,0.00,,SKC,0.00,WUHU21623XXSP,2013-02-25 12:25:00,
2013-02-25 14:30:00,68.5,44.4,30.00,SSW,202,4.4,15.7,42,0.00,,SKC,0.00,WUHU21623XXSP,2013-02-25 12:30:00,
2013-02-25 14:35:00,68.7,43.9,29.99,South,180,4.9,15.7,41,0.00,,SKC,0.00,WUHU21623XXSP,2013-02-25 12:35:00,
2013-02-25 14:40:00,68.5,43.8,30.00,ESE,112,6.4,13.1,41,0.00,,SKC,0.00,WUHU21623XXSP,2013-02-25 12:40:00,
2013-02-25 14:46:00,68.7,44.6,29.99,South,180,4.7,12.8,42,0.00,,SKC,0.00,WUHU21623XXSP,2013-02-25 12:46:00,
2013-02-25 14:51:00,68.5,44.4,29.99,East,90,0.0,10.8,42,0.00,,SKC,0.00,WUHU21623XXSP,2013-02-25 12:51:00,
2013-02-25 14:56:00,68.4,43.7,29.99,SSW,202,2.4,12.3,41,0.00,,SKC,0.00,WUHU21623XXSP,2013-02-25 12:56:00,
2013-02-25 15:01:00,68.5,44.4,29.99,SSE,157,5.6,12.3,42,0.00,,SKC,0.00,WUHU21623XXSP,2013-02-25 13:01:00,
2013-02-25 15:06:00,68.7,44.6,30.00,SE,135,4.9,12.8,42,0.00,,SKC,0.00,WUHU21623XXSP,2013-02-25 13:06:00,
2013-02-25 15:11:00,68.7,46.5,29.99,SE,135,6.9,12.8,45,0.00,,SKC,0.00,WUHU21623XXSP,2013-02-25 13:11:00,
2013-02-25 15:16:00,68.4,44.9,29.99,SSE,157,2.2,9.4,43,0.00,,SKC,0.00,WUHU21623XXSP,2013-02-25 13:16:00,
2013-02-25 15:21:00,68.2,45.4,30.00,ENE,67,1.0,9.4,44,0.00,,SKC,0.00,WUHU21623XXSP,2013-02-25 13:21:00,
2013-02-25 15:26:00,67.8,43.8,30.00,SE,135,4.7,12.3,42,0.00,,SKC,0.00,WUHU21623XXSP,2013-02-25 13:26:00,
2013-02-25 15:31:00,67.6,44.2,30.00,SSE,157,3.4,12.3,43,0.00,,SKC,0.00,WUHU21623XXSP,2013-02-25 13:31:00,
2013-02-25 15:36:00,67.5,44.1,29.99,SSW,202,0.0,10.8,43,0.00,,SKC,0.00,WUHU21623XXSP,2013-02-25 13:36:00,
2013-02-25 15:41:00,67.3,45.2,30.00,South,180,7.4,12.3,45,0.00,,SKC,0.00,WUHU21623XXSP,2013-02-25 13:41:00,
2013-02-25 15:46:00,67.1,45.6,29.99,SE,135,0.0,12.3,46,0.00,,SCT,0.00,WUHU21623XXSP,2013-02-25 13:46:00,
2013-02-25 15:51:00,66.9,46.6,29.99,SE,135,4.7,9.4,48,0.00,,SCT,0.00,WUHU21623XXSP,2013-02-25 13:51:00,
2013-02-25 15:56:00,67.1,45.6,30.00,SSE,157,0.0,9.4,46,0.00,,SCT,0.00,WUHU21623XXSP,2013-02-25 13:56:00,
2013-02-25 16:01:00,66.9,44.8,30.00,NE,45,0.0,5.9,45,0.00,,SCT,0.00,WUHU21623XXSP,2013-02-25 14:01:00,
2013-02-25 16:07:00,66.9,45.4,30.00,SSE,157,2.4,6.6,46,0.00,,SCT,0.00,WUHU21623XXSP,2013-02-25 14:07:00,
2013-02-25 16:12:00,66.7,44.0,30.00,SSE,157,1.8,6.6,44,0.00,,SCT,0.00,WUHU21623XXSP,2013-02-25 14:12:00,
2013-02-25 16:17:00,66.6,43.9,30.00,SE,135,5.6,10.6,44,0.00,,SCT,0.00,WUHU21623XXSP,2013-02-25 14:17:00,
2013-02-25 16:22:00,66.6,43.9,30.00,South,180,0.0,10.6,44,0.00,,SCT,0.00,WUHU21623XXSP,2013-02-25 14:22:00,
2013-02-25 16:27:00,66.7,44.0,29.99,South,180,2.8,9.1,44,0.00,,SCT,0.00,WUHU21623XXSP,2013-02-25 14:27:00,
2013-02-25 16:32:00,66.7,44.0,30.00,SSW,202,0.0,7.9,44,0.00,,SCT,0.00,WUHU21623XXSP,2013-02-25 14:32:00,
2013-02-25 16:37:00,66.6,44.5,29.99,SW,225,4.7,9.8,45,0.00,,SCT,0.00,WUHU21623XXSP,2013-02-25 14:37:00,
2013-02-25 16:42:00,66.6,44.5,29.99,SSW,202,4.7,11.6,45,0.00,,SCT,0.00,WUHU21623XXSP,2013-02-25 14:42:00,
2013-02-25 16:47:00,66.4,45.0,29.99,South,180,1.0,17.9,46,0.00,,SCT,0.00,WUHU21623XXSP,2013-02-25 14:47:00,
2013-02-25 16:52:00,66.4,45.0,29.99,South,180,4.7,17.9,46,0.00,,SCT,0.00,WUHU21623XXSP,2013-02-25 14:52:00,
2013-02-25 16:57:00,66.4,45.0,29.98,SSE,157,13.5,16.5,46,0.00,,SCT,0.00,WUHU21623XXSP,2013-02-25 14:57:00,
2013-02-25 17:02:00,65.8,45.0,29.98,SSE,157,1.2,16.5,47,0.00,,SCT,0.00,WUHU21623XXSP,2013-02-25 15:02:00,
2013-02-25 17:07:00,65.7,44.9,29.98,SSE,157,1.8,15.7,47,0.00,,SCT,0.00,WUHU21623XXSP,2013-02-25 15:07:00,
2013-02-25 17:12:00,65.7,45.5,29.98,South,180,0.0,15.7,48,0.00,,SCT,0.00,WUHU21623XXSP,2013-02-25 15:12:00,
2013-02-25 17:17:00,65.5,45.3,29.98,SW,225,3.2,10.8,48,0.00,,SCT,0.00,WUHU21623XXSP,2013-02-25 15:17:00,
2013-02-25 17:22:00,65.3,45.1,29.98,SE,135,1.8,13.1,48,0.00,,SCT,0.00,WUHU21623XXSP,2013-02-25 15:22:00,
2013-02-25 17:27:00,65.1,45.5,29.98,SSE,157,2.2,13.1,49,0.00,,SCT,0.00,WUHU21623XXSP,2013-02-25 15:27:00,
2013-02-25 17:32:00,64.8,45.8,29.98,SSE,157,8.9,10.8,50,0.00,,SCT,0.00,WUHU21623XXSP,2013-02-25 15:32:00,
2013-02-25 17:37:00,64.6,45.6,29.98,SSE,157,0.8,12.5,50,0.00,,SCT,0.00,WUHU21623XXSP,2013-02-25 15:37:00,
2013-02-25 17:42:00,64.2,45.7,29.98,South,180,0.0,12.5,51,0.00,,SCT,0.00,WUHU21623XXSP,2013-02-25 15:42:00,
2013-02-25 17:47:00,63.9,46.0,29.98,ESE,112,0.0,6.4,52,0.00,,SCT,0.00,WUHU21623XXSP,2013-02-25 15:47:00,
2013-02-25 17:52:00,63.9,46.0,29.99,SE,135,5.6,16.5,52,0.00,,SCT,0.00,WUHU21623XXSP,2013-02-25 15:52:00,
2013-02-25 17:57:00,63.5,45.6,29.98,South,180,6.6,16.5,52,0.00,,SCT,0.00,WUHU21623XXSP,2013-02-25 15:57:00,
2013-02-25 18:02:00,63.5,46.1,29.98,WSW,247,8.9,14.5,53,0.00,,SCT,0.00,WUHU21623XXSP,2013-02-25 16:02:00,
2013-02-25 18:07:00,63.0,46.7,29.98,SSW,202,1.4,12.8,55,0.00,,SCT,0.00,WUHU21623XXSP,2013-02-25 16:07:00,
2013-02-25 18:12:00,63.0,47.2,29.98,West,270,0.0,9.4,56,0.00,,SCT,0.00,WUHU21623XXSP,2013-02-25 16:12:00,
2013-02-25 18:17:00,62.8,47.0,29.98,SSW,202,0.0,5.2,56,0.00,,SCT,0.00,WUHU21623XXSP,2013-02-25 16:17:00,
2013-02-25 18:23:00,63.0,46.7,29.98,South,180,0.0,4.4,55,0.00,,SCT,0.00,WUHU21623XXSP,2013-02-25 16:23:00,
2013-02-25 18:28:00,62.8,46.5,29.99,SSW,202,4.0,4.4,55,0.00,,SCT,0.00,WUHU21623XXSP,2013-02-25 16:28:00,
2013-02-25 18:33:00,62.8,46.5,29.99,South,180,3.4,7.9,55,0.00,,SCT,0.00,WUHU21623XXSP,2013-02-25 16:33:00,
2013-02-25 18:38:00,62.8,46.5,30.00,East,90,0.0,11.3,55,0.00,,SCT,0.00,WUHU21623XXSP,2013-02-25 16:38:00,
2013-02-25 18:43:00,62.4,46.1,30.00,SW,225,0.0,11.3,55,0.00,,SCT,0.00,WUHU21623XXSP,2013-02-25 16:43:00,
2013-02-25 18:48:00,62.4,46.1,30.00,South,180,0.0,5.9,55,0.00,,SCT,0.00,WUHU21623XXSP,2013-02-25 16:48:00,
2013-02-25 18:53:00,62.1,45.8,30.00,South,180,0.0,0.0,55,0.00,,SCT,0.00,WUHU21623XXSP,2013-02-25 16:53:00,
2013-02-25 18:58:00,62.1,46.3,30.00,SW,225,0.0,1.4,56,0.00,,SCT,0.00,WUHU21623XXSP,2013-02-25 16:58:00,
2013-02-25 19:03:00,61.9,46.1,30.01,SSE,157,0.0,2.8,56,0.00,,SCT,0.00,WUHU21623XXSP,2013-02-25 17:03:00,
2013-02-25 19:08:00,61.7,45.9,30.00,SSE,157,0.0,3.7,56,0.00,,SCT,0.00,WUHU21623XXSP,2013-02-25 17:08:00,
2013-02-25 19:13:00,61.7,45.9,30.00,NW,315,0.0,5.4,56,0.00,,SCT,0.00,WUHU21623XXSP,2013-02-25 17:13:00,
2013-02-25 19:18:00,61.7,46.4,30.00,NNW,337,0.0,6.2,57,0.00,,SCT,0.00,WUHU21623XXSP,2013-02-25 17:18:00,
2013-02-25 19:23:00,61.7,46.4,30.00,South,180,4.0,8.9,57,0.00,,SCT,0.00,WUHU21623XXSP,2013-02-25 17:23:00,
2013-02-25 19:28:00,61.7,46.4,30.00,SE,135,0.0,8.9,57,0.00,,SCT,0.00,WUHU21623XXSP,2013-02-25 17:28:00,
2013-02-25 19:33:00,61.5,46.2,30.00,South,180,5.2,7.9,57,0.00,,SCT,0.00,WUHU21623XXSP,2013-02-25 17:33:00,
2013-02-25 19:38:00,61.5,46.7,29.99,SSE,157,0.0,9.1,58,0.00,,SCT,0.00,WUHU21623XXSP,2013-02-25 17:38:00,
2013-02-25 19:43:00,61.5,46.2,29.99,South,180,3.2,9.1,57,0.00,,SCT,0.00,WUHU21623XXSP,2013-02-25 17:43:00,
2013-02-25 19:48:00,61.5,46.2,29.99,SSW,202,1.4,8.1,57,0.00,,SCT,0.00,WUHU21623XXSP,2013-02-25 17:48:00,
2013-02-25 19:53:00,61.5,46.2,29.99,South,180,0.0,12.8,57,0.00,,SCT,0.00,WUHU21623XXSP,2013-02-25 17:53:00,
2013-02-25 19:58:00,61.5,46.2,30.00,SSW,202,3.4,12.8,57,0.00,,SCT,0.00,WUHU21623XXSP,2013-02-25 17:58:00,
2013-02-25 20:03:00,61.3,46.5,30.00,WSW,247,2.8,8.9,58,0.00,,SCT,0.00,WUHU21623XXSP,2013-02-25 18:03:00,
2013-02-25 20:08:00,61.3,46.5,30.00,SW,225,3.4,8.9,58,0.00,,SCT,0.00,WUHU21623XXSP,2013-02-25 18:08:00,
2013-02-25 20:13:00,61.2,46.4,30.00,SSE,157,6.4,7.4,58,0.00,,SCT,0.00,WUHU21623XXSP,2013-02-25 18:13:00,
2013-02-25 20:18:00,61.3,47.0,30.00,SSE,157,5.9,14.1,59,0.00,,SCT,0.00,WUHU21623XXSP,2013-02-25 18:18:00,
2013-02-25 20:23:00,61.2,46.9,30.00,SW,225,1.8,14.1,59,0.00,,SCT,0.00,WUHU21623XXSP,2013-02-25 18:23:00,
2013-02-25 20:28:00,61.2,47.3,30.00,SSE,157,2.2,9.1,60,0.00,,SCT,0.00,WUHU21623XXSP,2013-02-25 18:28:00,
2013-02-25 20:32:00,61.2,47.3,30.00,SSE,157,0.0,11.1,60,0.00,,SCT,0.00,WUHU21623XXSP,2013-02-25 18:32:00,
2013-02-25 20:37:00,61.0,47.1,30.00,SW,225,5.2,11.1,60,0.00,,SCT,0.00,WUHU21623XXSP,2013-02-25 18:37:00,
2013-02-25 20:42:00,61.0,47.6,30.00,SW,225,3.4,11.3,61,0.00,,SCT,0.00,WUHU21623XXSP,2013-02-25 18:42:00,
2013-02-25 20:47:00,61.0,47.6,30.00,SW,225,3.4,11.3,61,0.00,,SCT,0.00,WUHU21623XXSP,2013-02-25 18:47:00,
2013-02-25 20:52:00,61.0,48.0,30.00,South,180,2.4,11.3,62,0.00,,SCT,0.00,WUHU21623XXSP,2013-02-25 18:52:00,
2013-02-25 20:57:00,61.0,48.0,30.00,SSW,202,5.4,15.3,62,0.00,,SCT,0.00,WUHU21623XXSP,2013-02-25 18:57:00,
2013-02-25 21:02:00,61.0,48.5,30.00,SSE,157,0.0,18.5,63,0.00,,SCT,0.00,WUHU21623XXSP,2013-02-25 19:02:00,
2013-02-25 21:07:00,61.0,48.5,30.00,SW,225,2.4,18.5,63,0.00,,SCT,0.00,WUHU21623XXSP,2013-02-25 19:07:00,
2013-02-25 21:13:00,61.0,48.5,30.00,SSW,202,9.1,15.0,63,0.00,,SCT,0.00,WUHU21623XXSP,2013-02-25 19:13:00,
2013-02-25 21:18:00,61.0,48.9,30.00,South,180,14.5,15.0,64,0.00,,SCT,0.00,WUHU21623XXSP,2013-02-25 19:18:00,
2013-02-25 21:23:00,61.0,48.5,30.00,SSE,157,7.6,14.5,63,0.00,,SCT,0.00,WUHU21623XXSP,2013-02-25 19:23:00,
2013-02-25 21:28:00,61.2,49.1,30.00,SSE,157,3.2,21.7,64,0.00,,SCT,0.00,WUHU21623XXSP,2013-02-25 19:28:00,
2013-02-25 21:33:00,61.2,49.1,30.00,SSW,202,8.6,21.7,64,0.00,,SCT,0.00,WUHU21623XXSP,2013-02-25 19:33:00,
2013-02-25 21:37:00,61.2,49.1,30.00,South,180,15.7,21.7,64,0.00,,SCT,0.00,WUHU21623XXSP,2013-02-25 19:37:00,
2013-02-25 21:42:00,61.2,49.1,30.00,South,180,4.9,21.7,64,0.00,,SCT,0.00,WUHU21623XXSP,2013-02-25 19:42:00,
2013-02-25 21:47:00,61.2,49.1,30.00,SSE,157,9.6,17.9,64,0.00,,SCT,0.00,WUHU21623XXSP,2013-02-25 19:47:00,
2013-02-25 21:53:00,61.2,49.1,30.01,SSE,157,10.3,14.3,64,0.00,,SCT,0.00,WUHU21623XXSP,2013-02-25 19:53:00,
2013-02-25 21:57:00,61.2,49.1,30.00,South,180,7.2,15.5,64,0.00,,SCT,0.00,WUHU21623XXSP,2013-02-25 19:57:00,
2013-02-25 22:02:00,61.2,49.1,30.00,SSW,202,1.4,15.5,64,0.00,,SCT,0.00,WUHU21623XXSP,2013-02-25 20:02:00,
2013-02-25 22:07:00,61.2,49.1,30.00,SSW,202,5.9,19.1,64,0.00,,SCT,0.00,WUHU21623XXSP,2013-02-25 20:07:00,
2013-02-25 22:12:00,61.3,49.2,30.00,South,180,14.3,19.1,64,0.00,,SCT,0.00,WUHU21623XXSP,2013-02-25 20:12:00,
2013-02-25 22:17:00,61.3,49.2,30.00,SSE,157,18.5,18.5,64,0.00,,SCT,0.00,WUHU21623XXSP,2013-02-25 20:17:00,
2013-02-25 22:22:00,61.5,49.4,30.00,West,270,4.2,21.7,64,0.00,,SCT,0.00,WUHU21623XXSP,2013-02-25 20:22:00,
2013-02-25 22:27:00,61.3,49.2,30.00,SSW,202,9.4,21.7,64,0.00,,BKN,0.00,WUHU21623XXSP,2013-02-25 20:27:00,
2013-02-25 22:32:00,61.5,49.4,30.00,SSE,157,6.9,18.7,64,0.00,,BKN,0.00,WUHU21623XXSP,2013-02-25 20:32:00,
2013-02-25 22:37:00,61.3,49.6,30.00,SSE,157,12.1,18.7,65,0.00,,BKN,0.00,WUHU21623XXSP,2013-02-25 20:37:00,
2013-02-25 22:42:00,61.2,49.5,30.00,South,180,10.8,17.3,65,0.00,,BKN,0.00,WUHU21623XXSP,2013-02-25 20:42:00,
2013-02-25 22:47:00,61.2,49.9,30.00,South,180,19.5,19.5,66,0.00,,BKN,0.00,WUHU21623XXSP,2013-02-25 20:47:00,
2013-02-25 22:52:00,61.2,49.9,30.01,SSE,157,15.7,24.6,66,0.00,,BKN,0.00,WUHU21623XXSP,2013-02-25 20:52:00,
2013-02-25 22:58:00,61.0,49.7,30.00,South,180,5.4,24.6,66,0.00,,BKN,0.00,WUHU21623XXSP,2013-02-25 20:58:00,
2013-02-25 23:02:00,61.0,49.7,30.00,SSE,157,4.2,16.7,66,0.00,,BKN,0.00,WUHU21623XXSP,2013-02-25 21:02:00,
2013-02-25 23:08:00,61.0,50.1,30.00,ESE,112,7.6,16.5,67,0.00,,BKN,0.00,WUHU21623XXSP,2013-02-25 21:08:00,
2013-02-25 23:13:00,61.0,50.1,30.00,SE,135,5.2,15.0,67,0.00,,BKN,0.00,WUHU21623XXSP,2013-02-25 21:13:00,
2013-02-25 23:18:00,61.0,50.1,30.00,South,180,4.9,14.1,67,0.00,,BKN,0.00,WUHU21623XXSP,2013-02-25 21:18:00,
2013-02-25 23:23:00,61.0,50.1,30.00,SSE,157,11.6,18.5,67,0.00,,BKN,0.00,WUHU21623XXSP,2013-02-25 21:23:00,
2013-02-25 23:28:00,61.2,50.3,30.00,SSE,157,9.4,18.5,67,0.00,,BKN,0.00,WUHU21623XXSP,2013-02-25 21:28:00,
2013-02-25 23:33:00,61.0,50.1,30.00,South,180,12.5,14.3,67,0.00,,BKN,0.00,WUHU21623XXSP,2013-02-25 21:33:00,